Location: Dzbanki
(51.3421°N, 19.0720°E)
Time: 20:39:49
(UTC+00:00)

Daily predictions for brighter satellites

Satellite Brightness Start Highest point End
(mag) Time Altitude Azimuth Time Altitude Azimuth Time Altitude Azimuth
USA 59 Rocket 1.9 19:47:53 10° NNW 19:50:04 17° NNE 19:52:32 10° ENE
USA 305 2.4 19:47:35 10° WSW 19:51:32 87° SSE 19:54:54 10° ENE
NOSS 3 (A) 4.2 19:49:45 10° NW 19:52:08 87° SW 19:55:16 10° SE
SAR-Lupe-2 3.6 19:50:09 10° SSE 19:53:45 86° WSW 19:57:23 10° NNW
Cosmos 2237 Rocket 3.8 19:52:31 10° NW 19:57:19 29° WSW 20:02:05 10° SSW
Spot 2 Rocket 3.8 19:52:51 10° S 19:57:54 70° WSW 20:03:00 10° NNW
ERS-1 Rocket 4.0 19:54:39 10° S 19:59:24 42° W 20:04:11 10° NNW
Iridium 51 4.4 19:57:43 10° N 20:01:19 50° E 20:04:45 10° SSE
Cosmos 1633 Rocket 4.4 20:00:13 10° NNW 20:04:11 37° W 20:08:09 10° SSW
Cosmos 2123 Rocket 4.0 19:59:07 10° S 20:05:21 72° E 20:11:35 10° NNE
USA 307 4.4 20:05:05 10° SE 20:05:50 11° SE 20:06:37 10° ESE
Cosmos 1459 Rocket 4.3 19:59:48 10° NNW 20:06:08 73° W 20:12:28 10° S
COSMOS 2455 4.4 20:06:50 10° NW 20:11:52 28° WSW 20:16:53 10° SSW
DNEPR-1 R/B 4.0 20:13:06 10° SSW 20:18:55 66° SE 20:23:46 10° NE
NOSS 3-1 (C) 4.1 20:12:29 10° NW 20:19:18 74° NE 20:27:51 10° SE
Meteor 2-21 4.5 20:13:55 10° S 20:20:03 76° E 20:26:11 10° NNE
Okean-O 4.5 20:17:18 10° SSW 20:20:59 26° W 20:24:41 10° NW
Terra 3.4 20:17:00 10° SSW 20:21:08 30° W 20:25:18 10° NNW
Cosmos 1844 Rocket 4.2 20:20:02 11° SE 20:23:36 19° E 20:27:26 10° ENE
Cosmos 1802 Rocket 4.3 20:17:47 10° NNW 20:24:12 71° W 20:30:32 10° S
Cosmos 1140 Rocket 3.8 20:21:29 10° S 20:26:22 45° ESE 20:31:13 10° NE
SL-08 R/B 4.5 20:20:25 10° N 20:26:33 88° W 20:32:38 10° S
Cosmos 2297 Rocket 4.1 20:25:31 10° WSW 20:30:40 35° NW 20:35:51 10° NNE
Cosmos 2061 Rocket 4.0 20:25:05 10° N 20:31:24 82° E 20:37:23 11° SSE
Cosmos 2016 Rocket 4.3 20:28:55 10° NNW 20:35:13 69° W 20:41:33 10° S
GP-B 3.1 20:32:44 10° N 20:37:08 73° E 20:41:10 12° S
Cosmos 1933 Rocket 4.3 20:34:54 10° NNW 20:39:10 50° W 20:43:22 10° S
Cosmos 1437 Rocket 3.6 20:36:18 10° SSW 20:39:43 45° WNW 20:43:13 10° N
Lacrosse 4 Rocket 3.7 20:38:59 10° WNW 20:41:35 16° WSW 20:44:10 10° SW
Aureole 3 Rocket 4.0 20:39:21 10° NNE 20:42:08 25° ENE 20:44:47 13° SE
Cosmos 2228 Rocket 4.1 20:41:03 14° SE 20:44:11 31° E 20:48:05 10° NNE
Cosmos 1733 Rocket 3.3 20:43:14 10° N 20:47:33 55° ENE 20:50:53 16° SSE
ATLAS 3B R/B 4.3 20:42:03 10° NW 20:49:22 39° NNE 20:56:37 10° E
Cosmos 1703 3.6 20:47:58 17° SSE 20:50:14 39° E 20:53:31 10° NNE
Cosmos 1869 Rocket 4.1 20:49:25 10° NNW 20:53:41 54° W 20:57:38 12° S
SL-16 R/B 3.4 20:49:23 10° NW 20:54:25 33° WSW 20:59:25 10° S
SL-4 R/B 2.1 20:50:31 10° SW 20:54:31 49° SSE 20:58:26 10° E
Cosmos 540 Rocket 3.7 20:52:43 10° NNW 20:57:49 62° ENE 21:01:54 16° SE
Cosmos 407 Rocket 3.8 20:53:44 13° S 20:58:01 47° ESE 21:02:53 10° NE
Cosmos 2263 Rocket 2.6 20:52:39 10° SW 20:58:18 68° WNW 21:04:01 10° NNE
Ariane Rocket 4.2 20:54:22 10° SSW 20:59:02 36° W 21:03:45 10° NNW
Cosmos 2227 Rocket 3.6 20:54:11 10° WSW 20:59:29 40° NW 21:04:50 10° NNE
Okean 1-7 3.9 20:58:56 17° SE 21:01:27 32° E 21:05:09 10° NNE
Cosmos 546 4.5 21:00:10 10° W 21:03:59 82° S 21:07:49 10° E
ALOS 2 4.0 21:02:11 11° ESE 21:05:38 28° ENE 21:09:24 10° N
NOSS 3-1 (A) 4.1 21:02:54 10° NW 21:09:47 76° NE 21:18:17 10° SE
ASTEX 1 3.7 21:06:01 10° NNE 21:10:55 56° E 21:14:28 18° SSE
Cosmos 2344 4.0 21:03:50 10° NW 21:11:47 78° SW 21:21:15 14° SSE
NOSS 2-1 (C) 4.0 21:09:18 10° NW 21:12:30 45° NE 21:16:32 10° ESE
Cosmos 1943 3.5 21:07:12 10° NW 21:12:49 62° WSW 21:17:07 17° S
Cosmos 1464 Rocket 4.3 21:06:54 10° N 21:13:07 59° ENE 21:17:54 17° SSE
Cosmos 2292 Rocket 2.4 21:12:36 21° S 21:14:22 85° E 21:17:21 10° N
ATLAS 2AS CENTAUR R/B 3.9 21:12:28 16° SSE 21:16:16 25° ESE 21:21:42 10° ENE
Cosmos 2251 Rocket 4.0 21:14:26 17° S 21:18:15 46° ESE 21:23:22 10° NE
IRIDIUM 104 4.3 21:14:56 15° S 21:19:16 89° W 21:24:32 10° N
Okean 2 3.5 21:16:11 13° SSW 21:19:36 66° WNW 21:23:30 10° N
Cosmos 1892 2.0 21:18:28 25° S 21:20:04 70° E 21:23:03 10° NNE
USA 305 3.3 21:16:43 10° W 21:20:17 47° N 21:23:07 10° ENE
NOSS 2-1 (E) 3.9 21:17:06 10° NW 21:20:22 48° NE 21:24:24 11° ESE
USA 290 4.0 21:18:32 10° WSW 21:21:26 32° WNW 21:24:23 10° N
DELTA 2 DEB (DPAF) 3.9 21:18:01 10° NNE 21:21:56 78° WNW 21:25:12 14° SSW
COBE Rocket 4.2 21:17:05 10° N 21:22:07 68° WNW 21:26:59 10° SSW
Cosmos 1953 3.8 21:19:30 10° NNW 21:22:42 27° W 21:25:49 11° SSW
Cosmos 1862 Rocket 3.5 21:19:28 18° S 21:22:45 78° E 21:27:10 10° NNE
Cosmos 468 Rocket 4.1 21:17:40 10° NNW 21:22:51 71° ENE 21:26:36 18° SE
SeaSat 1 4.1 21:23:14 10° ESE 21:27:25 29° NE 21:31:38 10° NNW
IRIDIUM 114 4.4 21:24:04 15° S 21:28:26 76° W 21:33:41 10° N
Landsat 5 4.3 21:24:33 10° NNE 21:28:30 36° E 21:30:40 21° SSE
Cosmos 2219 4.2 21:23:27 10° SW 21:29:01 50° NW 21:34:39 10° NNE
SJ 16-02 3.1 21:27:45 15° SE 21:29:25 18° E 21:32:23 10° NE
Spot 4 4.2 21:26:40 19° SE 21:30:04 60° ENE 21:34:51 10° N
GRACE-FO 1 4.4 21:31:03 25° S 21:32:58 82° E 21:36:27 10° N
GRACE-FO 2 4.4 21:31:28 25° S 21:33:23 83° E 21:36:52 10° N
CZ-4C R/B 2.7 21:30:31 10° NNE 21:33:48 83° ESE 21:35:40 24° SSW
Cosmos 1603 3.7 21:28:29 10° NNW 21:34:06 76° WSW 21:38:04 20° SSE
USA 307 2.7 21:31:37 10° SW 21:34:57 47° SSE 21:38:46 10° ENE
Cosmos 2082 4.4 21:30:31 10° SW 21:36:08 56° NW 21:41:48 10° NNE
USA 59 Rocket -0.2 21:36:01 10° NW 21:39:26 79° NE 21:42:43 17° SE
Cosmos 1300 Rocket 4.5 21:40:48 10° N 21:44:57 39° ENE 21:47:47 18° SE
Cosmos 1763 Rocket 4.0 21:40:15 10° NNW 21:45:11 49° WSW 21:48:27 20° S
CZ-2C R/B 3.7 21:42:00 10° NNE 21:46:35 81° ESE 21:49:46 20° S
ARIANE 5 R/B 2.7 21:46:14 23° S 21:49:01 71° WSW 21:53:31 10° NNW
Geosat 4.4 21:45:01 10° NNE 21:49:58 63° NW 21:54:55 10° SW
MetOp-A 3.9 21:51:30 22° S 21:54:28 62° WSW 21:58:50 10° NNW
Cosmos 2227 4.3 21:51:53 10° SSW 21:57:31 80° WNW 22:03:10 10° NNE
PSLV R/B 4.1 22:00:55 10° NNE 22:05:06 45° E 22:07:21 24° SSE
Cosmos 1844 Rocket 2.7 22:01:37 13° SSW 22:06:45 86° WNW 22:12:28 10° NNE
Cosmos 1606 3.7 22:07:20 10° NNE 22:10:01 27° ENE 22:11:23 19° ESE
Cosmos 1703 Rocket 3.5 22:08:01 25° S 22:10:26 78° E 22:14:46 10° NNE
Cosmos 1782 Rocket 3.7 22:06:07 10° N 22:10:32 66° ENE 22:13:07 24° SSE
Cosmos 1271 Rocket 2.7 22:13:13 25° SSW 22:15:09 70° WNW 22:18:46 10° N
Cosmos 1844 3.8 22:16:10 13° SW 22:21:07 78° WNW 22:26:44 10° NNE
Cosmos 2228 Rocket 4.5 22:18:25 11° SW 22:22:14 33° WNW 22:26:16 10° N
Aureole 3 Rocket 4.4 22:26:26 10° NW 22:29:02 21° W 22:30:58 15° SW
NOSS 2-1 (D) 3.9 22:29:02 10° WNW 22:32:24 41° SW 22:34:09 27° S
SL-4 R/B 1.9 22:28:18 10° W 22:32:26 87° NNW 22:36:25 10° E
USA 234 4.4 22:29:04 10° ENE 22:34:11 24° SE 22:36:42 19° SSE
Cosmos 676 Rocket 4.0 22:32:07 21° SSW 22:35:45 90° ESE 22:41:02 10° NNE
Meteor 2-17 Rocket 4.4 22:34:33 22° S 22:38:41 89° W 22:44:46 10° N
ATLAS 3B R/B 3.1 22:33:17 10° NW 22:41:15 81° NE 22:48:56 10° SE
ALOS 2 3.4 22:39:35 23° SSW 22:41:51 40° W 22:46:00 10° NNW
Meteor 1-24 Rocket 3.9 22:43:34 20° SSW 22:47:48 75° WNW 22:53:40 10° N
Cosmos 1833 Rocket 2.7 22:42:18 10° NNW 22:47:58 83° ENE 22:52:21 17° SSE
Cosmos 1328 3.4 22:46:49 32° S 22:48:24 90° W 22:52:02 10° N
USA 305 2.4 22:45:58 10° WNW 22:49:07 53° NNE 22:51:21 10° E
Cosmos 2279 Rocket 4.0 22:45:58 10° N 22:52:11 79° E 22:56:36 20° SSE
Tsikada Rocket 4.1 22:49:22 21° SSW 22:53:43 76° W 23:00:04 10° N
Cosmos 371 Rocket 3.5 22:53:23 25° S 22:55:59 56° ESE 23:00:45 10° NNE
Cosmos 2242 Rocket 3.7 22:56:12 26° S 22:58:36 67° E 23:03:01 10° NNE
Cosmos 841 Rocket 4.3 22:58:42 10° NW 23:03:32 38° WSW 23:06:15 22° SSW
SeaSat 1 2.5 23:01:31 23° SSE 23:04:32 64° WSW 23:09:26 10° NW
H-2A R/B 3.2 23:02:26 16° SE 23:04:56 40° ENE 23:08:23 10° N
USA 307 2.9 23:01:15 10° W 23:05:00 68° NNW 23:08:59 10° ENE
ATLAS 2AS CENTAUR R/B 2.7 22:59:49 13° SW 23:06:25 89° SE 23:13:22 10° NE
SJ 16-02 1.7 23:04:19 20° SW 23:07:09 59° WNW 23:11:27 10° NNE
BREEZE-M DEB (TANK) 4.1 23:05:40 23° SSE 23:07:46 31° SE 23:17:50 10° ENE
Meteor 2-5 Rocket 4.4 23:10:07 17° SW 23:14:35 53° WNW 23:20:24 10° N
Cosmos 2180 Rocket 4.5 23:09:02 10° N 23:15:15 83° E 23:19:46 19° SSE
CZ-2C R/B 2.9 23:15:41 15° SSE 23:19:58 66° ENE 23:25:18 10° N
Cosmos 1814 Rocket 4.0 23:15:43 10° NNW 23:21:05 86° WSW 23:25:06 18° SSE
Sich 1 Rocket 4.2 23:17:36 10° N 23:21:59 53° ENE 23:25:23 16° SSE
Cosmos 1943 Rocket 3.3 23:20:08 17° SSE 23:23:25 30° ESE 23:28:11 10° NE
Cosmos 1850 Rocket 3.9 23:21:08 22° SSW 23:24:30 88° WNW 23:29:43 10° NNE
Cosmos 2082 Rocket 3.2 23:19:05 10° NNW 23:24:37 47° NE 23:30:07 10° SE
USA 59 Rocket 1.8 23:25:48 10° W 23:28:16 16° WSW 23:28:34 16° SW
Cosmos 304 Rocket 3.8 23:26:36 22° SSW 23:29:40 80° WNW 23:34:27 10° NNE
Cosmos 2278 Rocket 3.0 23:27:24 19° SSE 23:30:55 39° ESE 23:36:08 10° NE
Landsat 4 3.0 23:34:25 30° SSE 23:35:42 80° ENE 23:38:36 10° NNW
Cosmos 1025 Rocket 3.8 23:33:31 18° SSE 23:36:13 41° E 23:40:15 10° NNE
Cosmos 968 Rocket 3.7 23:33:29 19° SW 23:37:13 69° WNW 23:42:28 10° NNE
Cosmos 2151 Rocket 3.5 23:36:13 10° NNW 23:40:40 78° W 23:43:29 22° S
Okean 2 Rocket 3.1 23:38:14 10° N 23:42:44 89° W 23:45:45 20° S
Cosmos 1606 4.0 23:40:44 10° NW 23:42:54 18° W 23:43:44 16° WSW
Okean 1 Rocket 3.2 23:39:55 10° N 23:44:24 75° E 23:47:42 18° SSE
IDEFIX/ARIANE 42P 3.8 23:42:39 10° NNE 23:47:21 32° E 23:51:36 12° SSE
Cosmos 1378 Rocket 3.6 23:44:46 23° SSW 23:47:26 75° WNW 23:51:50 10° N
SL-24 R/B - RUBIN 2 4.4 23:45:40 10° NW 23:50:09 36° WSW 23:52:24 22° S
